sat.trackr.live / text

‹ back to catalog

STARLINK-6186

NORAD 56908 · 2023-083AJ

PAYLOAD ACTIVE UNKNOWN

§ Identity

Operator
Country
US
Launch date
2023-06-12
Launch site
AFETR
Launch vehicle
Mass (kg)
RCS (m²)

Purposes: comms

External: N2YO · Heavens-Above · Gunter

§ Orbital elements

Epoch: 2026-09-20T02:42:08.625312Z

Period
94.27 min
Inclination
43.0032°
Eccentricity
0.0001134
Mean motion
15.27576298 rev/d
Perigee alt
482.3 km
Apogee alt
483.8 km
Semi-major
6,861.2 km
B*
1.4975e-5
RAAN
52.5908°
Arg perigee
263.2174°
Mean anomaly
96.8548°
Rev number
18,153

§ Raw data

STARLINK-61861 56908U 23083AJ  26263.11259983  .00000150  00000+0  14975-4 0  99962 56908  43.0032  52.5908 0001134 263.2174  96.8548 15.27576298181535

JSON: /api/v1/satellites/56908 · /tle

For live sub-satellite position, see the globe view (requires WebGL).

§ Visibility from observer

Set your observer location to see the next 7 days of passes ≥ 10°. The values pass through the URL so the page stays shareable.

No JS? Fill the form by hand. The geolocation button needs JavaScript.